Regional Weather Roundup
Issued by NWS

Home | Current Version | Previous Version | Graphics & Text | Print | Product List | Glossary On
Versions: 1 2 3 4 5 6 7 8 9 10 11 12 13 14 15 16 17 18 19 20 21 22 23 24 25 26 27 28 29 30 31 32 33 34 35 36 37 38 39 40 41 42 43 44 45 46 47 48
000
ASUS45 KCYS 182210
RWRWY

WYOMING REGIONAL WEATHER ROUNDUP
NATIONAL WEATHER SERVICE CHEYENNE WY
400 PM MDT SAT APR 18 2015

NOTE:  "FAIR" INDICATES FEW OR NO CLOUDS BELOW 12,000 FEET
WITH NO SIGNIFICANT WEATHER AND/OR OBSTRUCTIONS TO VISIBILITY.

WYZ001-182300-
YELLOWSTONE NATIONAL PARK

CITY           SKY/WX    TMP DP  RH WIND       PRES   REMARKS
LK YELLOWSTONE   N/A     48  16  27 NW12G22   30.10F
W YELLOWSTONE  NOT AVBL

$$
WYZ002>013-054>058-071-098>099-182300-
NORTHERN WYOMING

CITY           SKY/WX    TMP DP  RH WIND       PRES   REMARKS
JACKSON        SUNNY     61  16  17 NW12      30.01S
CODY           CLOUDY    54  34  47 N28G38    30.06R
GREYBULL       FAIR      67  27  22 N36G47    29.94R
WORLAND        FAIR      68  26  20 N28G35    29.91S
SHERIDAN       CLOUDY    58  33  39 NW26G36   29.98S
BUFFALO        FAIR      59  31  34 NW31G43   29.96S
GILLETTE       PTSUNNY   60  36  40 N14       29.89F
HULETT         CLOUDY    50  41  71 E9        29.94S
NEWCASTLE      RAIN      46  45  93 CALM      29.93S

$$
WYZ014>020-022>026-101>103-182300-
CENTRAL WYOMING

CITY           SKY/WX    TMP DP  RH WIND       PRES   REMARKS
BIG PINEY      FAIR      63  11  13 N25G33    29.97F
PINEDALE       MOCLDY    59  12  15 NW18G32   29.97F
DUBOIS         FAIR      59  12  15 N15G25    29.98S
LANDER         FAIR      62  26  25 N25G36    29.93F
RIVERTON       FAIR      63  24  22 N28G40    29.94F
CASPER         CLOUDY    42  35  76 E9        29.96S
DOUGLAS        LGT RAIN  41  38  89 N6        29.97R

$$
WYZ021-027>030-104>119-182300-
SOUTHERN WYOMING

CITY           SKY/WX    TMP DP  RH WIND       PRES   REMARKS
EVANSTON       FAIR      59  19  21 N23G31    30.02S
KEMMERER       FAIR      57  18  21 NW17G28   30.00F
FORT BRIDGER   CLOUDY    61  25  25 NW20G31   30.01S
ROCK SPRINGS   PTSUNNY   56  26  31 NE24G35   29.96R
DIXON          LGT RAIN  39  35  87 N7        30.02R WCI  34
RAWLINS        CLOUDY    38  35  89 NE21      30.00S WCI  28
SARATOGA       CLOUDY    32  32 100 N20       29.98S VSB 1/2 WCI  20
LARAMIE        FAIR      35  31  85 NE9       29.93S WCI  28
CHEYENNE       FAIR      44  34  67 N13       29.89F
TORRINGTON     FAIR      57  36  45 E3        29.85F
PINE BLUFFS    MOCLDY    46  32  57 CALM      29.88F THUNDER

$$


USA.gov is the U.S. government's official web portal to all federal, state and local government web resources and services.